• Join FlightAware (Why Join?)
  • Login
  • US Flag 
12:05AM EST


 

Airport Tracker/Info


-or-


 

Live Flight TrackerFlight Track Log ✈ N789EX ✈ 25-Mar-2014 ✈ KBFI - KBFI

Flight Track Log - Related Links

Times and Time Zones

All times are in EDT time to prevent confusion due to time zone crossing. See the N789EX flight status page for this flight to view local times or setup timezone preferences in your user account.

Time Position Orientation Groundspeed Altitude Reporting Facility
EDT Latitude Longitude Course Direction KTS MPH feet Rate Location/Type
12:31PM 47.5025 -122.2790 148° Southeast 187 215 1,500  Level FlightAware ADS-B
12:32PM 47.4908 -122.2680 147° Southeast 199 229 2,000 1,742 Climbing FlightAware ADS-B
12:32PM 47.4776 -122.2550 148° Southeast 215 247 2,400 1,742 Climbing FlightAware ADS-B
12:32PM 47.4643 -122.2430 147° Southeast 234 269 2,900 2,500 Climbing FlightAware ADS-B
12:32PM 47.4562 -122.2350 146° Southeast 234 269 3,400 3,391 Climbing FlightAware ADS-B
12:33PM 47.4446 -122.2220 144° Southeast 234 269 4,200 3,000 Climbing FlightAware ADS-B
12:33PM 47.4412 -122.2190 147° Southeast 234 269 4,300 3,000 Climbing FlightAware ADS-B
12:33PM 47.4369 -122.2150 152° Southeast 234 269 4,600 3,000 Climbing FlightAware ADS-B
12:33PM 47.4335 -122.2130 156° South 234 269 4,700 2,250 Climbing FlightAware ADS-B
12:33PM 47.4291 -122.2110 160° South 234 269 4,900 3,000 Climbing FlightAware ADS-B
12:33PM 47.4251 -122.2090 165° South 233 268 5,100 3,429 Climbing FlightAware ADS-B
12:33PM 47.4218 -122.2080 169° South 233 268 5,300 3,000 Climbing FlightAware ADS-B
12:33PM 47.4185 -122.2070 175° South 233 268 5,400 2,000 Climbing FlightAware ADS-B
12:33PM 47.4153 -122.2070 180° South 233 268 5,500 2,571 Climbing FlightAware ADS-B
12:33PM 47.4112 -122.2080 187° South 233 268 5,700 3,000 Climbing FlightAware ADS-B
12:33PM 47.4070 -122.2090 194° South 233 268 5,900 2,571 Climbing FlightAware ADS-B
12:33PM 47.4037 -122.2110 200° South 234 269 6,000 3,000 Climbing FlightAware ADS-B
12:33PM 47.4004 -122.2130 205° Southwest 235 270 6,200 2,571 Climbing FlightAware ADS-B
12:33PM 47.3972 -122.2160 212° Southwest 237 273 6,300 2,250 Climbing FlightAware ADS-B
12:33PM 47.3936 -122.2200 219° Southwest 240 276 6,500 3,000 Climbing FlightAware ADS-B
12:33PM 47.3903 -122.2240 226° Southwest 243 280 6,700 2,250 Climbing FlightAware ADS-B
12:34PM 47.3876 -122.2290 233° Southwest 245 282 6,800 2,250 Climbing FlightAware ADS-B
12:34PM 47.3850 -122.2350 241° Southwest 248 285 7,000 3,000 Climbing FlightAware ADS-B
12:34PM 47.3831 -122.2420 248° West 251 289 7,200 3,000 Climbing FlightAware ADS-B
12:34PM 47.3818 -122.2490 254° West 253 291 7,400 2,571 Climbing FlightAware ADS-B
12:34PM 47.3788 -122.2650 254° West 253 291 7,800 2,870 Climbing FlightAware ADS-B
12:34PM 47.3746 -122.2870 254° West 255 293 8,500 2,880 Climbing FlightAware ADS-B
12:34PM 47.3706 -122.3070 254° West 257 296 9,000 2,667 Climbing FlightAware ADS-B
12:35PM 47.3655 -122.3330 254° West 259 298 9,700 2,533 Climbing FlightAware ADS-B
12:35PM 47.3556 -122.3840 254° West 271 312 10,900 2,154 Climbing FlightAware ADS-B
12:35PM 47.3561 -122.3816 254° West 281 323 11,100 1,161 Climbing FlightAware ADS-B (CYVR)
12:36PM 47.3443 -122.4420 254° West 303 349 11,500 1,135 Climbing FlightAware ADS-B
12:36PM 47.3386 -122.4704 254° West 316 364 11,800 1,355 Climbing FlightAware ADS-B (CYVR)
12:36PM 47.3315 -122.5060 254° West 331 381 12,200 1,565 Climbing FlightAware ADS-B
12:37PM 47.3180 -122.5740 254° West 353 406 13,000 1,667 Climbing FlightAware ADS-B
12:37PM 47.3158 -122.5848 254° West 356 410 13,200 2,483 Climbing FlightAware ADS-B (CYVR)
12:37PM 47.3045 -122.6420 254° West 358 412 14,200 2,600 Climbing FlightAware ADS-B
12:37PM 47.3042 -122.6433 254° West 358 412 14,500 2,323 Climbing FlightAware ADS-B
12:38PM 47.2902 -122.7140 253° West 362 417 15,400 2,200 Climbing FlightAware ADS-B
12:38PM 47.2873 -122.7279 253° West 367 422 15,600 1,448 Climbing FlightAware ADS-B (CYVR)
12:38PM 47.2758 -122.7850 254° West 382 440 16,100 1,200 Climbing FlightAware ADS-B
12:38PM 47.2736 -122.7956 254° West 385 443 16,200 1,800 Climbing FlightAware ADS-B
12:39PM 47.2604 -122.8600 254° West 391 450 17,000 2,082 Climbing FlightAware ADS-B
12:39PM 47.2467 -122.9282 254° West 397 457 17,900 2,000 Climbing FlightAware ADS-B
12:39PM 47.2447 -122.9390 253° West 397 457 18,000 2,323 Climbing FlightAware ADS-B
12:40PM 47.2307 -123.0075 254° West 397 457 19,100 2,323 Climbing FlightAware ADS-B (CYVR)
12:40PM 47.2287 -123.0170 253° West 397 457 19,200 2,471 Climbing FlightAware ADS-B
12:40PM 47.2127 -123.0960 253° West 396 456 20,500 2,571 Climbing FlightAware ADS-B
12:40PM 47.2225 -123.0484 253° West 396 456 20,700 2,000 Climbing FlightAware ADS-B
12:41PM 47.1968 -123.1740 253° West 400 460 21,500 1,800 Climbing FlightAware ADS-B
12:41PM 47.1945 -123.1847 253° West 401 461 21,600 1,742 Climbing FlightAware ADS-B
12:41PM 47.1802 -123.2540 253° West 406 467 22,400 1,742 Climbing FlightAware ADS-B
12:41PM 47.1813 -123.2485 253° West 407 468 22,500 1,742 Climbing FlightAware ADS-B (CYVR)
12:42PM 47.1633 -123.3350 253° West 409 471 23,300 1,800 Climbing FlightAware ADS-B
12:42PM 47.1623 -123.3405 253° West 410 472 23,400 1,440 Climbing FlightAware ADS-B (CYVR)
12:42PM 47.1500 -123.3974 251° West 413 475 23,900 1,500 Climbing FlightAware ADS-B (CYVR)
12:42PM 47.1473 -123.4090 251° West 412 474 24,000 1,385 Climbing FlightAware ADS-B
12:42PM 47.1318 -123.4700 248° West 414 476 24,500 1,333 Climbing FlightAware ADS-B
12:43PM 47.1287 -123.4815 249° West 415 478 24,600 1,800 Climbing FlightAware ADS-B (CYVR)
12:43PM 47.1106 -123.5490 248° West 416 479 25,400 1,650 Climbing FlightAware ADS-B
12:43PM 47.1020 -123.5812 249° West 417 480 25,700 1,600 Climbing FlightAware ADS-B (CYVR)
12:43PM 47.0892 -123.6280 249° West 418 481 26,200 1,600 Climbing FlightAware ADS-B
12:44PM 47.0795 -123.6642 249° West 419 482 26,500 1,400 Climbing FlightAware ADS-B (CYVR)
12:44PM 47.0675 -123.7090 248° West 421 484 26,900 1,200 Climbing FlightAware ADS-B
12:44PM 47.0506 -123.7709 248° West 425 489 27,300 1,000 Climbing FlightAware ADS-B (CYVR)
12:44PM 47.0459 -123.7880 248° West 426 490 27,400 1,000 Climbing FlightAware ADS-B
12:45PM 47.0317 -123.8397 248° West 431 496 27,800 968 Climbing FlightAware ADS-B (CYVR)
12:45PM 47.0233 -123.8710 248° West 433 498 27,900 1,297 Climbing FlightAware ADS-B
12:46PM 47.0011 -123.9530 248° West 436 502 28,600 1,313 Climbing FlightAware ADS-B
12:46PM 46.9993 -123.9591 248° West 436 502 28,600 857 Level FlightAware ADS-B (CYVR)
12:46PM 46.9746 -124.0487 246° West 439 505 29,100 1,000 Climbing FlightAware ADS-B
12:46PM 46.9663 -124.0720 240° Southwest 434 499 29,300 1,059 Climbing FlightAware ADS-B
12:46PM 46.9573 -124.0910 232° Southwest 428 493 29,400 857 Climbing FlightAware ADS-B
12:46PM 46.9485 -124.1040 225° Southwest 424 488 29,500 857 Climbing FlightAware ADS-B
12:46PM 46.9476 -124.1056 224° Southwest 423 487 29,500  Level FlightAware ADS-B
12:47PM 46.9406 -124.1150 220° Southwest 421 484 29,500 667 Level FlightAware ADS-B
12:47PM 46.9334 -124.1220 216° Southwest 419 482 29,600 1,200 Climbing FlightAware ADS-B
12:47PM 46.9246 -124.1300 210° Southwest 417 480 29,700 1,200 Climbing FlightAware ADS-B
12:47PM 46.9228 -124.1316 206° Southwest 416 479 29,800 1,000 Climbing FlightAware ADS-B
12:47PM 46.9142 -124.1380 204° Southwest 415 478 29,800 750 Level FlightAware ADS-B
12:47PM 46.9020 -124.1440 198° South 414 476 29,900 1,000 Climbing FlightAware ADS-B
12:47PM 46.8916 -124.1480 192° South 412 474 30,000 1,800 Climbing FlightAware ADS-B
12:47PM 46.8834 -124.1500 188° South 411 473 30,200 1,636 Climbing FlightAware ADS-B
12:47PM 46.8709 -124.1510 182° South 410 472 30,300 1,714 Climbing FlightAware ADS-B
12:48PM 46.8052 -124.1521 181° South 401 461 31,400 1,750 Climbing FlightAware ADS-B
12:48PM 46.7818 -124.1530 181° South 400 460 31,700 1,231 Climbing FlightAware ADS-B
12:48PM 46.7445 -124.1533 181° South 400 460 32,200 1,200 Climbing FlightAware ADS-B
12:49PM 46.7256 -124.1540 181° South 400 460 32,300 1,059 Climbing FlightAware ADS-B
12:49PM 46.6698 -124.1550 181° South 400 460 32,800 1,105 Climbing FlightAware ADS-B
12:49PM 46.6568 -124.1549 181° South 400 460 33,000 1,161 Climbing FlightAware ADS-B
12:50PM 46.6121 -124.1560 181° South 400 460 33,400 947 Climbing FlightAware ADS-B
12:50PM 46.5955 -124.1560 181° South 400 460 33,600 968 Climbing FlightAware ADS-B
12:50PM 46.5563 -124.1570 181° South 401 461 33,900 571 Climbing FlightAware ADS-B
12:50PM 46.5107 -124.1576 181° South 400 460 34,000 200 Climbing FlightAware ADS-B
12:51PM 46.5004 -124.1580 181° South 400 460 34,000  Level FlightAware ADS-B
12:51PM 46.4448 -124.1590 181° South 401 461 34,000  Level FlightAware ADS-B
12:51PM 46.4481 -124.1588 181° South 401 461 34,000  Level FlightAware ADS-B
12:52PM 46.3885 -124.1600 181° South 401 461 34,000  Level FlightAware ADS-B
12:52PM 46.3744 -124.1602 181° South 401 461 34,000  Level FlightAware ADS-B (CYVR)
12:52PM 46.3315 -124.1610 181° South 400 460 34,000  Level FlightAware ADS-B
12:52PM 46.2937 -124.1618 181° South 401 461 34,000  Level FlightAware ADS-B
12:53PM 46.2480 -124.1630 181° South 401 461 34,000  Level FlightAware ADS-B
12:53PM 46.2179 -124.1632 181° South 402 463 34,000  Level FlightAware ADS-B
12:53PM 46.1908 -124.1640 181° South 401 461 34,000  Level FlightAware ADS-B
12:54PM 46.1352 -124.1650 181° South 401 461 34,000 -194 Level FlightAware ADS-B
12:54PM 46.0763 -124.1660 181° South 398 458 33,800 -500 Descending FlightAware ADS-B
12:54PM 46.0682 -124.1661 181° South 397 457 33,700 -1,313 Descending FlightAware ADS-B
12:55PM 46.0171 -124.1670 181° South 388 447 33,100 -1,395 Descending FlightAware ADS-B
12:55PM 46.0121 -124.1671 181° South 383 441 32,700 -1,935 Descending FlightAware ADS-B
12:55PM 45.9630 -124.1680 181° South 381 438 32,100 -2,211 Descending FlightAware ADS-B
12:56PM 45.9242 -124.1685 181° South 380 437 31,300 -2,000 Descending FlightAware ADS-B
12:56PM 45.9099 -124.1690 181° South 380 437 31,100 -429 Descending FlightAware ADS-B
12:56PM 45.8561 -124.1700 181° South 376 433 31,000 -85 Descending FlightAware ADS-B
12:57PM 45.7865 -124.1710 181° South 373 429 31,000  Level FlightAware ADS-B
12:57PM 45.7820 -124.1714 181° South 373 429 31,000  Level FlightAware ADS-B
12:57PM 45.7576 -124.1720 183° South 371 427 31,000  Level FlightAware ADS-B
12:57PM 45.7485 -124.1740 189° South 369 425 31,000  Level FlightAware ADS-B
12:58PM 45.7351 -124.1800 200° South 367 422 31,000  Level FlightAware ADS-B
12:58PM 45.7245 -124.1870 209° Southwest 368 423 31,000  Level FlightAware ADS-B
12:58PM 45.7173 -124.1939 215° Southwest 370 426 31,000  Level FlightAware ADS-B
12:58PM 45.7117 -124.2000 216° Southwest 371 427 31,000  Level FlightAware ADS-B
12:58PM 45.6688 -124.2490 219° Southwest 371 427 31,000  Level FlightAware ADS-B
12:58PM 45.6688 -124.2486 218° Southwest 372 428 31,000  Level FlightAware ADS-B
12:59PM 45.6262 -124.2960 218° Southwest 371 427 31,000  Level FlightAware ADS-B
12:59PM 45.5823 -124.3446 218° Southwest 372 428 31,000  Level FlightAware ADS-B
01:00PM 45.5288 -124.4037 218° Southwest 378 435 31,000  Level FlightAware ADS-B
01:01PM 45.4191 -124.5236 217° Southwest 413 475 31,000 -331 Level FlightAware ADS-B
01:02PM 45.3384 -124.6120 1000° North 370 426 30,300 -857 Descending FlightAware ADS-B
01:02PM 45.3230 -124.6290 218° Southwest 422 486 30,100 -889 Descending FlightAware ADS-B
01:03PM 45.2767 -124.6814 218° Southwest 414 476 29,500 -400 Descending Seattle Center
01:04PM 45.1828 -124.7811 217° Southwest 420 483 29,400 -738 Descending Seattle Center
01:05PM 45.1378 -124.9492 249° West 482 555 28,000 -49 Descending Seattle Center
01:06PM 45.2922 -125.0042 346° North 561 646 29,300 787 Climbing Seattle Center
01:07PM 45.4414 -125.0725 342° North 570 656 29,600 148 Climbing Seattle Center
01:08PM 45.4817 -125.2458 288° West 490 564 29,600  Level Seattle Center
01:09PM 45.4022 -125.3569 224° Southwest 416 479 29,600  Level Seattle Center
01:10PM 45.2833 -125.3453 176° South 455 524 29,600 -50 Level Seattle Center
01:11PM 45.1853 -125.2647 150° Southeast 444 511 29,500 149 Descending Seattle Center
01:12PM 45.2100 -125.0567 80° East 546 628 29,900 344 Climbing Seattle Center
01:13PM 45.2536 -124.8431 74° East 560 644 30,200 344 Climbing Seattle Center
01:14PM 45.2972 -124.6294 74° East 563 648 30,600 -148 Climbing Seattle Center
01:15PM 45.2406 -124.4714 117° Southeast 480 552 29,900 -295 Descending Seattle Center
01:16PM 45.1256 -124.4911 187° South 424 488 30,000 50 Climbing Seattle Center
01:17PM 45.0136 -124.5383 197° South 422 486 30,000 -430 Level Seattle Center
01:23PM 45.5595 -125.1930 51° Northeast 568 654 27,200 -133 Descending FlightAware ADS-B
01:23PM 45.6076 -125.1100 51° Northeast 521 600 29,200 2,459 Climbing FlightAware ADS-B
01:24PM 45.6545 -125.0270 51° Northeast 527 606 29,700 590 Climbing FlightAware ADS-B
01:24PM 45.7018 -124.9410 52° Northeast 541 623 29,800 290 Climbing FlightAware ADS-B
01:25PM 45.7489 -124.8530 53° Northeast 555 639 30,000 214 Climbing FlightAware ADS-B
01:25PM 45.7873 -124.7800 54° Northeast 568 654 30,000  Level FlightAware ADS-B
01:25PM 45.7999 -124.7540 57° Northeast 569 655 30,000  Level FlightAware ADS-B
01:26PM 45.8126 -124.7190 66° East 560 644 30,000  Level FlightAware ADS-B
01:26PM 45.8216 -124.6690 81° East 539 620 30,000  Level FlightAware ADS-B
01:26PM 45.8070 -124.5660 118° Southeast 481 554 30,000  Level FlightAware ADS-B
01:27PM 45.7689 -124.5140 146° Southeast 445 512 30,000  Level FlightAware ADS-B
01:27PM 45.7525 -124.5050 160° South 432 497 30,000 -480 Level FlightAware ADS-B
01:27PM 45.7220 -124.4950 171° South 427 491 29,800 -1,235 Descending FlightAware ADS-B
01:28PM 45.6184 -124.4882 178° South 428 493 28,600 -1,074 Descending FlightAware ADS-B
01:29PM 45.5559 -124.4845 177° South 431 496 28,100 -293 Descending FlightAware ADS-B
01:30PM 45.4571 -124.4778 178° South 430 495 28,200 59 Climbing FlightAware ADS-B
01:31PM 45.3597 -124.5086 178° South 429 494 28,200 387 Level Seattle Center
01:32PM 45.2517 -124.5619 199° South 415 478 29,000 496 Climbing Seattle Center
01:33PM 45.1419 -124.6272 203° Southwest 429 494 29,200 198 Climbing Seattle Center
01:34PM 45.0136 -124.7042 203° Southwest 423 487 29,400 -102 Climbing Seattle Center
01:39PM 45.5315 -125.3540 344° North 595 685 28,500 -293 Descending FlightAware ADS-B
01:40PM 45.5801 -125.3740 345° North 591 680 27,600 -4,038 Descending FlightAware ADS-B
01:40PM 45.6577 -125.3330 346° North 591 680 25,000 -2,000 Descending FlightAware ADS-B
01:40PM 45.6665 -125.2970 72° East 499 574 26,100 2,143 Climbing FlightAware ADS-B
01:41PM 45.6884 -125.2050 71° East 476 548 26,500 1,548 Climbing FlightAware ADS-B
01:42PM 45.7114 -125.1150 69° East 467 537 27,700 1,475 Climbing FlightAware ADS-B
01:42PM 45.7353 -125.0270 69° East 481 554 28,000 700 Climbing FlightAware ADS-B
01:43PM 45.7602 -124.9350 69° East 495 570 28,400 787 Climbing FlightAware ADS-B
01:43PM 45.7854 -124.8420 69° East 504 580 28,800 878 Climbing FlightAware ADS-B
01:43PM 45.7928 -124.8127 71° East 503 579 29,000 1,286 Climbing FlightAware ADS-B
01:43PM 45.7965 -124.7960 73° East 500 575 29,100 857 Climbing FlightAware ADS-B
01:43PM 45.8007 -124.7640 83° East 486 559 29,200 364 Climbing FlightAware ADS-B
01:44PM 45.7932 -124.6950 99° East 461 531 29,300 436 Climbing FlightAware ADS-B
01:44PM 45.7511 -124.6370 152° Southeast 398 458 29,600 667 Climbing FlightAware ADS-B
01:45PM 45.6996 -124.6058 159° South 402 463 30,000 571 Climbing FlightAware ADS-B
01:45PM 45.6785 -124.5970 152° Southeast 398 458 30,000  Level FlightAware ADS-B
01:46PM 45.6417 -124.5909 176° South 413 475 30,000 -808 Level FlightAware ADS-B
01:47PM 45.5064 -124.5783 176° South 415 478 28,600 73 Descending Seattle Center
01:52PM 44.8504 -124.6999 205° Southwest 424 488 30,500 -225 Climbing FlightAware ADS-B
01:54PM 44.7750 -124.8683 205° Southwest 468 539 27,000 -1,113 Descending Seattle Center
01:55PM 44.7789 -125.0469 272° West 463 533 27,700 836 Climbing Seattle Center
01:56PM 44.7583 -125.2197 261° West 472 543 28,700 1,426 Climbing Seattle Center
01:57PM 44.8733 -125.3383 324° Northwest 542 624 30,600 -137 Climbing Seattle Center
02:02PM 45.5182 -124.7108 115° Southeast 454 522 27,800 -419 Descending FlightAware ADS-B
02:03PM 45.5035 -124.6727 133° Southeast 429 494 28,100 794 Climbing FlightAware ADS-B
02:04PM 45.4178 -124.6010 156° South 414 476 28,700 1,091 Climbing FlightAware ADS-B
02:04PM 45.4157 -124.5994 155° Southeast 414 476 28,900 2,400 Climbing FlightAware ADS-B
02:04PM 45.3648 -124.5660 155° Southeast 404 465 29,900 892 Climbing FlightAware ADS-B
02:05PM 45.2886 -124.5220 155° Southeast 395 455 30,000 32 Climbing FlightAware ADS-B
02:07PM 45.0446 -124.4986 169° South 377 434 30,000  Level FlightAware ADS-B
02:09PM 44.9042 -124.4890 1000° North 385 443 30,000  Level FlightAware ADS-B
02:09PM 44.8640 -124.5237 244° Southwest 395 455 30,000  Level FlightAware ADS-B
02:10PM 44.8228 -124.6553 244° Southwest 405 466 30,000  Level Seattle Center
02:11PM 44.8117 -124.8153 264° West 440 506 30,000 -389 Level Seattle Center
02:17PM 45.5935 -124.8106 71° East 518 596 27,400 -109 Descending FlightAware ADS-B
02:18PM 45.6281 -124.6552 77° East 485 558 29,300 2,438 Climbing FlightAware ADS-B
02:18PM 45.6320 -124.6000 89° East 459 528 30,000 2,100 Climbing FlightAware ADS-B
02:18PM 45.6319 -124.5941 88° East 460 529 30,000  Level FlightAware ADS-B
02:18PM 45.6264 -124.5500 108° East 433 498 30,000  Level FlightAware ADS-B
02:18PM 45.6077 -124.5090 130° Southeast 407 468 30,000  Level FlightAware ADS-B
02:19PM 45.6021 -124.5020 140° Southeast 395 455 30,000  Level FlightAware ADS-B
02:19PM 45.5962 -124.4970 146° Southeast 388 447 30,000  Level FlightAware ADS-B
02:19PM 45.5839 -124.4880 159° South 376 433 30,000  Level FlightAware ADS-B
02:19PM 45.5682 -124.4840 170° South 370 426 30,000  Level FlightAware ADS-B
02:19PM 45.5716 -124.4842 176° South 367 422 30,000  Level FlightAware ADS-B
02:19PM 45.5526 -124.4840 182° South 367 422 30,000  Level FlightAware ADS-B
02:19PM 45.5129 -124.4898 187° South 370 426 30,000 86 Level FlightAware ADS-B
02:20PM 45.4341 -124.5028 187° South 371 427 30,100 111 Climbing FlightAware ADS-B
02:20PM 45.4217 -124.5080 182° South 367 422 30,100 25 Level FlightAware ADS-B
02:24PM 45.6312 -125.0010 1000° North 377 434 30,200 144 Climbing FlightAware ADS-B
02:25PM 45.6705 -124.9730 34° Northeast 556 640 30,700 1,680 Climbing FlightAware ADS-B
02:25PM 45.6862 -124.9550 42° Northeast 550 633 30,900 1,200 Climbing FlightAware ADS-B
02:25PM 45.6981 -124.9360 49° Northeast 542 624 31,000 375 Climbing FlightAware ADS-B
02:25PM 45.7093 -124.9130 58° Northeast 530 610 31,000  Level FlightAware ADS-B
02:25PM 45.7183 -124.8860 68° East 515 593 31,000  Level FlightAware ADS-B
02:25PM 45.7224 -124.8660 75° East 504 580 31,000  Level FlightAware ADS-B
02:25PM 45.7268 -124.8170 85° East 488 562 31,000  Level FlightAware ADS-B
02:25PM 45.7267 -124.8198 87° East 487 560 31,000  Level FlightAware ADS-B
02:26PM 45.7294 -124.7060 88° East 492 566 31,000  Level FlightAware ADS-B
02:27PM 45.6990 -124.6185 134° Southeast 419 482 31,000  Level FlightAware ADS-B
02:27PM 45.6706 -124.5980 88° East 492 566 31,000  Level FlightAware ADS-B
02:27PM 45.6657 -124.5962 168° South 382 440 31,000  Level FlightAware ADS-B
02:27PM 45.6567 -124.5940 172° South 379 436 31,000  Level FlightAware ADS-B
02:28PM 45.5905 -124.5890 177° South 379 436 31,000 305 Level FlightAware ADS-B
02:28PM 45.5534 -124.5890 172° South 379 436 31,300 -1,565 Climbing FlightAware ADS-B
02:28PM 45.5298 -124.6339 271° West 434 499 29,800 -411 Descending FlightAware ADS-B
02:31PM 45.6221 -124.9850 350° North 506 582 30,100 75 Climbing FlightAware ADS-B
02:31PM 45.6439 -124.9870 North 520 598 30,000 -300 Descending FlightAware ADS-B
02:31PM 45.6694 -124.9810 12° North 530 610 30,000 -261 Level FlightAware ADS-B
02:31PM 45.6991 -124.9640 27° Northeast 538 619 29,900  Descending FlightAware ADS-B
02:32PM 45.7443 -124.9260 31° Northeast 548 631 30,000 231 Climbing FlightAware ADS-B
02:32PM 45.7551 -124.9170 33° Northeast 549 632 30,000 706 Level FlightAware ADS-B
02:32PM 45.7798 -124.8910 38° Northeast 550 633 30,200 1,143 Climbing FlightAware ADS-B
02:32PM 45.7966 -124.8700 43° Northeast 548 631 30,400 1,500 Climbing FlightAware ADS-B
02:33PM 45.8174 -124.8399 47° Northeast 544 626 30,900 1,400 Climbing FlightAware ADS-B
02:33PM 45.8492 -124.7910 47° Northeast 545 627 31,100 1,000 Climbing FlightAware ADS-B
02:33PM 45.9015 -124.7090 48° Northeast 550 633 31,600 984 Climbing FlightAware ADS-B
02:34PM 45.9532 -124.6260 48° Northeast 555 639 32,100 1,065 Climbing FlightAware ADS-B
02:34PM 46.0072 -124.5380 49° Northeast 557 641 32,700 1,011 Climbing FlightAware ADS-B
02:35PM 46.1131 -124.3630 49° Northeast 549 632 33,700 319 Climbing FlightAware ADS-B
02:36PM 46.1635 -124.2790 49° Northeast 548 631 33,200 -1,102 Descending FlightAware ADS-B
02:36PM 46.1930 -124.2294 49° Northeast 540 621 32,800 -1,400 Descending FlightAware ADS-B (CYVR)
02:36PM 46.2128 -124.1960 49° Northeast 535 616 32,500 -1,548 Descending FlightAware ADS-B
02:37PM 46.2358 -124.1576 49° Northeast 529 609 32,000 -1,600 Descending FlightAware ADS-B (CYVR)
02:37PM 46.2612 -124.1150 49° Northeast 525 604 31,700 -1,756 Descending FlightAware ADS-B
02:37PM 46.3086 -124.0350 49° Northeast 513 590 30,800 -1,964 Descending FlightAware ADS-B
02:38PM 46.3413 -123.9803 49° Northeast 512 589 29,900 -2,200 Descending FlightAware ADS-B (CYVR)
02:38PM 46.3548 -123.9580 49° Northeast 511 588 29,700 -2,063 Descending FlightAware ADS-B
02:38PM 46.3955 -123.8888 50° Northeast 508 585 28,800 -2,063 Descending FlightAware ADS-B (CYVR)
02:38PM 46.4028 -123.8760 49° Northeast 507 583 28,600 -1,886 Descending FlightAware ADS-B
02:39PM 46.4483 -123.8000 49° Northeast 501 577 27,700 -1,941 Descending FlightAware ADS-B
02:39PM 46.4535 -123.7911 49° Northeast 501 577 27,500 -2,000 Descending FlightAware ADS-B (CYVR)
02:39PM 46.4936 -123.7230 49° Northeast 495 570 26,700 -1,742 Descending FlightAware ADS-B
02:39PM 46.5004 -123.7118 49° Northeast 494 568 26,600 -1,600 Descending FlightAware ADS-B (CYVR)
02:40PM 46.5377 -123.6490 49° Northeast 486 559 25,900 -1,855 Descending FlightAware ADS-B
02:40PM 46.5814 -123.5740 50° Northeast 482 555 24,900 -2,754 Descending FlightAware ADS-B
02:41PM 46.6262 -123.4976 50° Northeast 497 572 23,100 -2,656 Descending FlightAware ADS-B (CYVR)
02:41PM 46.6696 -123.4236 50° Northeast 487 560 22,200 -1,900 Descending FlightAware ADS-B (CYVR)
02:42PM 46.7144 -123.3472 50° Northeast 478 550 21,200 -1,900 Descending FlightAware ADS-B (CYVR)
02:42PM 46.7565 -123.2750 50° Northeast 460 529 20,300 -1,787 Descending FlightAware ADS-B
02:43PM 46.7781 -123.2377 50° Northeast 444 511 19,800 -1,742 Descending FlightAware ADS-B (CYVR)
02:43PM 46.7970 -123.2050 50° Northeast 441 507 19,400 -1,636 Descending FlightAware ADS-B
02:43PM 46.8343 -123.1410 50° Northeast 405 466 18,600 -1,400 Descending FlightAware ADS-B
02:44PM 46.8706 -123.0780 50° Northeast 412 474 18,000 -871 Descending FlightAware ADS-B
02:44PM 46.9092 -123.0100 50° Northeast 399 459 17,700 -581 Descending FlightAware ADS-B
02:45PM 46.9436 -122.9500 50° Northeast 383 441 17,400 -566 Descending FlightAware ADS-B
02:45PM 46.9711 -122.9060 46° Northeast 383 441 17,200 -789 Descending FlightAware ADS-B
02:46PM 46.9885 -122.8810 43° Northeast 382 440 16,900 -1,400 Descending FlightAware ADS-B (CYVR)
02:46PM 47.0098 -122.8530 41° Northeast 382 440 16,500 -1,600 Descending FlightAware ADS-B
02:46PM 47.0498 -122.8020 41° Northeast 379 436 15,700 -1,600 Descending FlightAware ADS-B
02:47PM 47.0897 -122.7510 41° Northeast 377 434 14,900 -1,574 Descending FlightAware ADS-B
02:47PM 47.1290 -122.7010 41° Northeast 367 422 14,100 -1,535 Descending FlightAware ADS-B
02:48PM 47.1424 -122.6841 41° Northeast 360 414 13,800 -1,412 Descending FlightAware ADS-B (CYVR)
02:48PM 47.1504 -122.6740 40° Northeast 360 414 13,700 -1,636 Descending FlightAware ADS-B
02:48PM 47.1588 -122.6640 36° Northeast 360 414 13,500 -1,500 Descending FlightAware ADS-B
02:48PM 47.1682 -122.6560 28° Northeast 360 414 13,400 -1,200 Descending FlightAware ADS-B
02:48PM 47.1731 -122.6530 22° Northeast 359 413 13,300 -1,714 Descending FlightAware ADS-B
02:48PM 47.1785 -122.6500 17° North 357 411 13,200 -1,500 Descending FlightAware ADS-B
02:48PM 47.1858 -122.6480 North 353 406 13,100 -857 Descending FlightAware ADS-B
02:48PM 47.1891 -122.6477 North 351 404 13,100 -1,000 Level FlightAware ADS-B (CYVR)
02:48PM 47.1958 -122.6470 North 347 399 13,000 -1,500 Descending FlightAware ADS-B
02:48PM 47.2081 -122.6470 360° North 339 390 12,800 -1,125 Descending FlightAware ADS-B
02:48PM 47.2214 -122.6470 359° North 333 383 12,700 -968 Descending FlightAware ADS-B (CYVR)
02:49PM 47.2557 -122.6480 359° North 315 362 12,300 -973 Descending FlightAware ADS-B
02:49PM 47.2745 -122.6483 359° North 304 350 12,100 -1,355 Descending FlightAware ADS-B (CYVR)
02:49PM 47.2990 -122.6490 360° North 294 338 11,600 -1,846 Descending FlightAware ADS-B
02:50PM 47.3191 -122.6488 360° North 286 329 10,900 -1,929 Descending FlightAware ADS-B (CYVR)
02:50PM 47.3356 -122.6490 North 284 327 10,700 -1,800 Descending FlightAware ADS-B
02:50PM 47.3413 -122.6490 North 283 326 10,600 -1,909 Descending FlightAware ADS-B (CYVR)
02:50PM 47.3648 -122.6490 North 280 322 10,000 -1,941 Descending FlightAware ADS-B
02:50PM 47.3850 -122.6490 North 274 315 9,500 -1,765 Descending FlightAware ADS-B
02:50PM 47.3860 -122.6486 North 275 316 9,500 -2,000 Level FlightAware ADS-B (CYVR)
02:51PM 47.4039 -122.6480 North 272 313 9,000 -2,483 Descending FlightAware ADS-B
02:51PM 47.4233 -122.6480 North 275 316 8,300 -3,400 Descending FlightAware ADS-B
02:51PM 47.4433 -122.6480 North 291 335 7,300 -3,484 Descending FlightAware ADS-B
02:51PM 47.4641 -122.6470 North 299 344 6,500 -2,710 Descending FlightAware ADS-B
02:52PM 47.4848 -122.6470 North 298 343 5,900 -2,400 Descending FlightAware ADS-B
02:52PM 47.5057 -122.6470 North 296 341 5,300 -2,750 Descending FlightAware ADS-B
02:52PM 47.5186 -122.6470 360° North 298 343 4,800 -2,609 Descending FlightAware ADS-B
02:52PM 47.5373 -122.6470 359° North 305 351 4,300 -1,655 Descending FlightAware ADS-B
02:53PM 47.5584 -122.6480 359° North 301 346 4,000 -600 Descending FlightAware ADS-B
02:53PM 47.5794 -122.6490 359° North 289 333 4,000 -214 Level FlightAware ADS-B
02:53PM 47.5961 -122.6490 359° North 278 320 3,900 -643 Descending FlightAware ADS-B
02:53PM 47.6154 -122.6500 359° North 268 308 3,700 -581 Descending FlightAware ADS-B
02:53PM 47.6338 -122.6500 359° North 257 296 3,600 -387 Descending FlightAware ADS-B
02:54PM 47.6517 -122.6510 359° North 247 284 3,500 -600 Descending FlightAware ADS-B
02:54PM 47.6688 -122.6520 359° North 234 269 3,300 -621 Descending FlightAware ADS-B
02:54PM 47.6829 -122.6520 359° North 218 251 3,200  Descending FlightAware ADS-B
02:54PM 47.6979 -122.6520 359° North 216 249 3,300 200 Climbing FlightAware ADS-B
02:55PM 47.7132 -122.6530 359° North 218 251 3,300 -563 Level FlightAware ADS-B
02:55PM 47.7301 -122.6530 359° North 217 250 3,000 -938 Descending FlightAware ADS-B
02:55PM 47.7450 -122.6540 359° North 213 245 2,800 -1,000 Descending FlightAware ADS-B
02:56PM 47.7600 -122.6540 359° North 209 241 2,500 -750 Descending FlightAware ADS-B
02:56PM 47.7762 -122.6550 359° North 206 237 2,400 -300 Descending FlightAware ADS-B
02:56PM 47.7790 -122.6550 North 205 236 2,400  Level FlightAware ADS-B
02:56PM 47.7847 -122.6530 13° North 205 236 2,400  Level FlightAware ADS-B
02:56PM 47.7880 -122.6520 21° North 205 236 2,400  Level FlightAware ADS-B
02:56PM 47.7906 -122.6490 32° Northeast 203 234 2,400 600 Level FlightAware ADS-B
02:56PM 47.7952 -122.6430 52° Northeast 197 227 2,500 500 Climbing FlightAware ADS-B
02:56PM 47.7972 -122.6370 67° East 190 219 2,500  Level FlightAware ADS-B
02:56PM 47.7981 -122.6300 79° East 184 212 2,500  Level FlightAware ADS-B
02:56PM 47.7980 -122.6200 93° East 172 198 2,500  Level FlightAware ADS-B
02:58PM 47.7795 -122.5160 141° Southeast 151 174 2,500  Level FlightAware ADS-B
02:58PM 47.7714 -122.5080 148° Southeast 147 169 2,500 -250 Level FlightAware ADS-B
02:59PM 47.7659 -122.5030 149° Southeast 145 167 2,400  Descending FlightAware ADS-B
02:59PM 47.7571 -122.4950 149° Southeast 146 168 2,500 182 Climbing FlightAware ADS-B
02:59PM 47.7463 -122.4860 151° Southeast 149 171 2,500  Level FlightAware ADS-B
02:59PM 47.7358 -122.4770 152° Southeast 153 176 2,500  Level FlightAware ADS-B
02:59PM 47.7324 -122.4740 150° Southeast 155 178 2,500 -286 Level FlightAware ADS-B
03:00PM 47.7231 -122.4670 150° Southeast 152 175 2,400  Descending FlightAware ADS-B
03:00PM 47.7074 -122.4530 150° Southeast 146 168 2,500 136 Climbing FlightAware ADS-B
03:00PM 47.6967 -122.4440 149° Southeast 147 169 2,500  Level FlightAware ADS-B
03:01PM 47.6797 -122.4300 150° Southeast 143 165 2,500  Level FlightAware ADS-B
03:01PM 47.6708 -122.4220 150° Southeast 144 166 2,500  Level FlightAware ADS-B
03:01PM 47.6636 -122.4160 150° Southeast 146 168 2,500  Level FlightAware ADS-B
03:02PM 47.6547 -122.4090 150° Southeast 146 168 2,500  Level FlightAware ADS-B
03:02PM 47.6468 -122.4020 150° Southeast 144 166 2,500  Level FlightAware ADS-B
03:02PM 47.6414 -122.3970 149° Southeast 144 166 2,500 -240 Level FlightAware ADS-B
03:02PM 47.6328 -122.3900 150° Southeast 143 165 2,400 -375 Descending FlightAware ADS-B
03:03PM 47.6230 -122.3810 150° Southeast 146 168 2,300 -686 Descending FlightAware ADS-B
03:03PM 47.6123 -122.3720 150° Southeast 146 168 2,000 -857 Descending FlightAware ADS-B
03:03PM 47.6022 -122.3640 151° Southeast 145 167 1,800 -909 Descending FlightAware ADS-B
03:03PM 47.5928 -122.3560 150° Southeast 146 168 1,500 -1,132 Descending FlightAware ADS-B
03:04PM 47.5728 -122.3392 150° Southeast 145 167 800 -977 Descending Seattle Center
03:05PM 47.5428 -122.3133 150° Southeast 182 209 100 -857 Descending Seattle Center